Regional Weather Roundup
Issued by NWS

Home | Current Version | Previous Version | Text Only | Print | Product List | Glossary Off
Versions: 1 2 3 4 5 6 7 8 9 10 11 12 13 14 15 16 17 18 19 20 21 22 23 24 25 26 27 28 29 30 31 32 33 34 35 36 37 38 39 40 41 42 43 44 45 46 47 48 49 50

000
ASUS43 KDMX 250007
RWRIA

WEATHER ROUNDUP FOR IOWA
NATIONAL WEATHER SERVICE DES MOINES IA
600 PM CST SAT JAN 24 2015

NOTE: "FAIR" INDICATES FEW OR NO CLOUDS BELOW 12,000 FEET WITH NO
SIGNIFICANT WEATHER AND/OR OBSTRUCTIONS TO VISIBILITY.

* - THESE STATIONS ARE NOT NWS STATIONS...THUS NOT UNDER NWS
QUALITY CONTROL.  THEY ALSO DO NOT REPORT WEATHER SUCH
AS PRECIPITATION OR FOG.

IAZ001>003-012>014-020>022-031>034-043>046-250100-
   NORTHWEST IOWA

CITY           SKY/WX    TMP DP  RH WIND       PRES   REMARKS
CARROLL *      CLOUDY    43  32  65 SW9       29.61F
CHEROKEE *     RAIN      39  36  86 CALM      29.61R
DENISON *      CLOUDY    45  32  61 CALM      29.60F
LE MARS *      CLOUDY    41  36  81 S3        29.61F
ORANGE CITY *  RAIN      39  34  81 SW5       29.59F
SHELDON *      MIX PCPN  37  37 100 SW7       29.58F WCI  32
SIOUX CITY     CLOUDY    46  34  62 CALM      29.61F
6HR MIN TEMP:  44; 6HR MAX TEMP:  50; 6HR PCP: TRACE;

SPENCER        CLOUDY    37  33  85 SW10      29.59F WCI  30
6HR MIN TEMP:  37; 6HR MAX TEMP:  42;

STORM LAKE *   MIX PCPN  39  34  81 W9        29.61S WCI  33
$$

IAZ055>058-069>071-079>083-090>094-250100-
   SOUTHWEST IOWA

CITY           SKY/WX    TMP DP  RH WIND       PRES   REMARKS
ATLANTIC *     CLOUDY    45  32  61 SW6       29.64F
AUDUBON *      MOCLDY    45  30  57 SW3       29.64F
CLARINDA *     CLOUDY    46  28  49 SW6       29.68F
COUNCIL BLFS * CLOUDY    50  32  50 SW8       29.64F
CRESTON *      CLOUDY    46  30  53 SW9       29.65F
HARLAN  *      CLOUDY    45  32  61 SW6       29.67F
LAMONI         CLOUDY    48  29  47 SW10      29.67S
6HR MIN TEMP:  48; 6HR MAX TEMP:  55;

RED OAK *      CLOUDY    48  30  49 SW5       29.66F
SHENANDOAH *   CLOUDY    48  28  46 SW10      29.67F
$$

IAZ047>049-059>061-072>074-084-250100-
   CENTRAL IOWA

CITY           SKY/WX    TMP DP  RH WIND       PRES   REMARKS
AMES           CLOUDY    41  32  70 W7        29.62F
6HR MIN TEMP:  41; 6HR MAX TEMP:  49;

ANKENY *       PTCLDY    46  32  57 SW6       29.63F
CHARITON *     CLOUDY    50  28  43 W5        29.65F
DES MOINES     CLOUDY    48  29  47 W9        29.65S
6HR MIN TEMP:  47; 6HR MAX TEMP:  53;

GRINNELL*      CLOUDY    43  32  65 SW3       29.64F
KNOXVILLE *    CLOUDY    46  30  53 SW7       29.63F
MARSHALLTOWN   CLOUDY    40  33  76 S5        29.62S
6HR MIN TEMP:  40; 6HR MAX TEMP:  48;

PELLA *        CLOUDY    46  32  57 SW5       29.66S
PERRY *          N/A     42  32  69 SW9       29.63F
$$

IAZ004>006-015-016-023>025-035-036-250100-
   NORTH CENTRAL IOWA

CITY           SKY/WX    TMP DP  RH WIND       PRES   REMARKS
ALGONA *       MOCLDY    36  34  93 SW6       29.59S WCI  31
CLARION *      PTCLDY    36  36 100 SW3       29.60F
ESTHERVILLE    CLOUDY    34  31  88 W8        29.57F WCI  27
6HR MIN TEMP:  34; 6HR MAX TEMP:  38;

FORT DODGE *   MOCLDY    37  30  75 CALM      29.61F
MASON CITY     CLOUDY    37  33  85 SW7       29.59F WCI  32
6HR MIN TEMP:  37; 6HR MAX TEMP:  42;

FOREST CITY *  CLEAR     36  32  87 SW3       29.58F
IOWA FALLS *     N/A     39  34  81 SW6       29.62F WCI  35
$$

IAZ007>011-017>019-026>030-037>042-050>054-066-250100-
   NORTHEAST IOWA

CITY           SKY/WX    TMP DP  RH WIND       PRES   REMARKS
CEDAR RAPIDS   CLOUDY    38  32  79 W7        29.63S WCI  33
6HR MIN TEMP:  38; 6HR MAX TEMP:  49;

CHARLES CITY * CLOUDY    37  36  93 SW9       29.61F WCI  31
CLINTON *      CLOUDY    36  30  80 SW8       29.68S WCI  29
DECORAH *      MOCLDY    37  34  87 CALM      29.59F
DUBUQUE        CLOUDY    36  32  85 CALM      29.63S
6HR MIN TEMP:  36; 6HR MAX TEMP:  43;

MONTICELLO *   CLEAR     39  36  87 CALM      29.64R
OELWEIN *      MOCLDY    37  34  87 W9        29.62S WCI  31
WATERLOO       MOCLDY    37  33  85 W5        29.62S WCI  33
6HR MIN TEMP:  37; 6HR MAX TEMP:  47;

$$

IAZ064-065-067-068-078-250100-
   EAST CENTRAL IOWA

CITY           SKY/WX    TMP DP  RH WIND       PRES   REMARKS
DAVENPORT      CLOUDY    40  32  73 SW7       29.66F
6HR MIN TEMP:  38; 6HR MAX TEMP:  46;

IOWA CITY      CLOUDY    40  32  73 CALM      29.66S
6HR MIN TEMP:  37; 6HR MAX TEMP:  49;

MT. PLEASANT * CLOUDY    41  32  72 S7        29.68S
MUSCATINE *    CLEAR     39  34  81 S7        29.67S WCI  34
QUAD CITIES    MOCLDY    41  33  73 S6        29.66F
6HR MIN TEMP:  40; 6HR MAX TEMP:  48;

$$

IAZ062-063-075>077-085>089-095>099-250100-
   SOUTHEAST IOWA

CITY           SKY/WX    TMP DP  RH WIND       PRES   REMARKS
BURLINGTON     CLOUDY    43  33  68 S6        29.68S
6HR MIN TEMP:  42; 6HR MAX TEMP:  48;

FAIRFIELD *    MOCLDY    43  30  61 SW6       29.67S
FORT MADISON * CLEAR     46  36  66 S6        29.69S
KEOKUK *       CLEAR     45  34  65 S7        29.69R
OSKALOOSA *      N/A     42  30  64 S5        29.65F
CENTERVILLE *  PTCLDY    48  30  49 SW10      29.68S
OTTUMWA        CLOUDY    42  29  59 S7        29.65F
6HR MIN TEMP:  42; 6HR MAX TEMP:  53;

WASHINGTON *   CLEAR     43  34  70 SW6       29.66S
$$

ABBREVIATIONS USED IN REMARKS
   TC - TEMPERATURES IN CELSIUS
  WCI - WIND CHILL INDEX
   HX - HEAT INDEX
  VSB - VISIBILITY
$$



USA.gov is the U.S. government's official web portal to all federal, state and local government web resources and services.